Back to catalog

STARLINK-35268

AliveCommunicationsSSO
NORAD 65810·PAYLOAD·🇺🇸 United States

Launched Sep 26, 2025 from Vandenberg Space Force Base

Loading…

Next Passes (next 24 hours)

TLE

FreshSource: CelesTrak SupGP

Epoch: Sep 14, 2026, 22:30 UTC

1 65810C 25218V   26257.93798611  .00071593  00000+0  22237-2 0  2573
2 65810  97.2847 115.3626 0001806 101.2988  98.7062 15.33383189    14

Track STARLINK-35268 in real time with AllMySat

Download on the App Store